This demonstration page uses our WeatherBlox Daily Observations layout. Learn more.

Left ArrowRight Arrow

Hourly Observations for April 6, 2020

Temp ( °F °C ) Dew Point ( °F °C ) Humidity (%) Winds ( mph kmh ) Pressure ( in mb ) Visibility ( mi km ) Precip ( " mm )
12:15 am 00:15 Clear with Mist and Fog 44 6.5 41 4.8 89 89 SE 10 17 29.88 1012 5 8.0467 0 0
12:35 am 00:35 Clear with Mist and Fog 43 6.3 41 5 91 91 SE 8 13 29.88 1012 5 8.0467 0 0
12:55 am 00:55 Clear with Mist and Fog 44 6.4 41 5.1 92 92 SE 13 20 29.87 1012 5 8.0467 0 0
1:15 am 01:15 Partly Cloudy with Mist and Fog 44 6.8 42 5.7 93 93 SSE 9 15 29.86 1011 5 8.0467 0 0
1:35 am 01:35 Partly Cloudy 47 8.3 45 7.2 93 93 SSE 12 19 29.84 1010 10 16.0934 0 0
1:55 am 01:55 Partly Cloudy 48 8.9 46 7.5 91 91 SSE 12 19 29.83 1010 10 16.0934 0 0
2:15 am 02:15 Mostly Cloudy 50 9.9 47 8.6 92 92 SSE 13 20 29.8 1009 10 16.0934 0 0
2:35 am 02:35 Cloudy 52 11.2 49 9.3 88 88 SSE 12 19 29.78 1009 10 16.0934 0 0
2:55 am 02:55 Cloudy 52 11.2 49 9.2 88 88 SSE 14 22 29.78 1009 10 16.0934 0 0
3:15 am 03:15 Cloudy 53 11.5 49 9.5 88 88 SSE 10 17 29.78 1008 10 16.0934 0 0
3:35 am 03:35 Cloudy 52 11.3 49 9.5 89 89 SSE 10 17 29.78 1009 10 16.0934 0 0
3:55 am 03:55 Cloudy 53 11.7 49 9.7 88 88 SSE 9 15 29.77 1008 10 16.0934 0 0
4:15 am 04:15 Cloudy 53 11.7 50 9.8 88 88 SSE 10 17 29.77 1008 10 16.0934 0 0
4:35 am 04:35 Cloudy 53 11.7 50 9.8 88 88 SSE 8 13 29.77 1008 10 16.0934 0 0
4:55 am 04:55 Cloudy 53 11.7 50 9.9 89 89 SSE 7 11 29.77 1008 10 16.0934 0 0
5:15 am 05:15 Cloudy 53 11.5 49 9.7 89 89 SSE 6 9 29.77 1008 10 16.0934 0 0
5:35 am 05:35 Cloudy 53 11.5 50 9.8 89 89 SSE 6 9 29.76 1008 10 16.0934 0 0
5:55 am 05:55 Cloudy 53 11.5 50 10 91 91 SSE 6 9 29.76 1008 10 16.0934 0 0
6:15 am 06:15 Cloudy 53 11.5 50 10 91 91 SSE 7 11 29.76 1008 10 16.0934 0 0
6:35 am 06:35 Cloudy 53 11.6 50 10.1 91 91 SSE 6 9 29.76 1008 10 16.0934 0 0
6:55 am 06:55 Cloudy 53 11.8 51 10.3 91 91 SSE 5 7 29.76 1008 10 16.0934 0 0
7:15 am 07:15 Cloudy 53 11.6 50 10.2 91 91 SSE 3 6 29.76 1008 10 16.0934 0 0
7:35 am 07:35 Cloudy 53 11.5 50 10.2 92 92 SSE 5 7 29.77 1008 10 16.0934 0 0
7:55 am 07:55 Cloudy 53 11.7 51 10.5 92 92 SSE 6 9 29.76 1008 10 16.0934 0 0
8:15 am 08:15 Cloudy 54 12 51 10.6 91 91 SE 6 9 29.77 1008 10 16.0934 0 0
8:35 am 08:35 Cloudy 54 12.2 51 10.7 91 91 SSE 6 9 29.77 1008 10 16.0934 0 0
8:55 am 08:55 Cloudy 54 12.3 51 10.7 90 90 SE 7 11 29.76 1008 10 16.0934 0 0
9:15 am 09:15 Cloudy 55 12.8 52 10.9 88 88 SE 8 13 29.76 1008 10 16.0934 0 0
9:35 am 09:35 Cloudy 56 13.5 52 11.1 86 86 SE 6 9 29.75 1008 10 16.0934 0 0
9:55 am 09:55 Cloudy 56 13.5 52 11 85 85 S 5 7 29.75 1008 10 16.0934 0 0
10:15 am 10:15 Cloudy 57 13.8 52 11.1 84 84 S 5 7 29.75 1007 10 16.0934 0 0
10:35 am 10:35 Cloudy 57 14.1 52 10.9 81 81 SSE 3 6 29.75 1007 10 16.0934 0 0
11:35 am 11:35 Cloudy 58 14.5 51 10.7 78 78 Calm 29.75 1008 10 16.0934 0 0
11:55 am 11:55 Cloudy 59 15 51 10.5 75 75 S 5 7 29.75 1007 10 16.0934 0 0
12:15 pm 12:15 Cloudy 61 15.9 51 10.7 71 71 Calm 29.74 1007 10 16.0934 0 0
12:35 pm 12:35 Cloudy 60 15.8 51 10.7 72 72 Calm 29.73 1007 10 16.0934 0 0
12:55 pm 12:55 Mostly Cloudy 63 17.1 51 10.7 66 66 NNW 5 7 29.71 1006 10 16.0934 0 0
1:15 pm 13:15 Mostly Cloudy 63 17.2 51 10.4 64 64 Calm 29.71 1006 10 16.0934 0 0
1:35 pm 13:35 Partly Cloudy 64 17.9 50 10.2 61 61 Calm 29.7 1006 10 16.0934 0 0
1:55 pm 13:55 Sunny 66 18.9 51 10.3 58 58 SW 5 7 29.69 1005 10 16.0934 0 0
2:15 pm 14:15 Sunny 66 19.1 50 10 56 56 Calm 29.68 1005 10 16.0934 0 0
2:35 pm 14:35 Sunny 69 20.3 51 10.4 53 53 WNW 5 7 29.66 1004 10 16.0934 0 0
2:55 pm 14:55 Sunny 69 20.5 49 9.6 50 50 ENE 3 6 29.65 1004 10 16.0934 0 0
3:15 pm 15:15 Sunny 70 21.2 48 9 46 46 Calm 29.65 1004 10 16.0934 0 0
3:35 pm 15:35 Sunny 71 21.7 49 9.2 45 45 WSW 3 6 29.63 1004 10 16.0934 0 0
3:55 pm 15:55 Sunny 72 22 48 9 44 44 Calm 29.62 1003 10 16.0934 0 0
4:15 pm 16:15 Sunny 73 22.8 49 9.2 42 42 Calm 29.62 1003 10 16.0934 0 0
4:35 pm 16:35 Sunny 73 23 47 8.5 40 40 S 3 6 29.61 1003 10 16.0934 0 0
4:55 pm 16:55 Sunny 74 23.6 47 8.6 38 38 WNW 6 9 29.61 1003 10 16.0934 0 0
5:15 pm 17:15 Sunny 75 24 47 8.2 37 37 Calm 29.6 1002 10 16.0934 0 0
5:35 pm 17:35 Sunny 76 24.5 47 8.4 36 36 S 5 7 29.59 1002 10 16.0934 0 0
5:55 pm 17:55 Sunny 76 24.4 47 8.1 35 35 S 5 7 29.59 1002 10 16.0934 0 0
6:15 pm 18:15 Sunny 76 24.4 46 7.7 34 34 WSW 5 7 29.6 1002 10 16.0934 0 0
6:35 pm 18:35 Sunny 76 24.3 46 7.9 35 35 SW 6 9 29.6 1002 10 16.0934 0 0
6:55 pm 18:55 Sunny 75 24.1 47 8.2 36 36 SW 6 9 29.6 1003 10 16.0934 0 0
7:15 pm 19:15 Sunny 74 23.5 46 7.9 37 37 SSW 6 9 29.61 1003 10 16.0934 0 0
7:35 pm 19:35 Sunny 73 22.6 46 7.6 38 38 S 3 6 29.61 1003 10 16.0934 0 0
7:55 pm 19:55 Sunny 71 21.5 46 7.6 41 41 S 3 6 29.63 1003 10 16.0934 0 0
8:15 pm 20:15 Clear 68 19.9 46 7.9 46 46 S 6 9 29.64 1004 10 16.0934 0 0
8:35 pm 20:35 Clear 65 18.4 46 7.9 51 51 S 3 6 29.65 1004 10 16.0934 0 0
8:55 pm 20:55 Clear 62 16.7 46 7.5 55 55 S 3 6 29.67 1005 10 16.0934 0 0
9:15 pm 21:15 Clear 58 14.4 44 6.9 61 61 S 3 6 29.69 1006 10 16.0934 0 0
9:35 pm 21:35 Clear 56 13.6 45 7 65 65 SSE 3 6 29.7 1006 7 11.26538 0 0
9:55 pm 21:55 Clear 56 13.5 45 7 65 65 SE 3 6 29.71 1006 10 16.0934 0 0
10:15 pm 22:15 Clear 57 14.1 46 7.5 65 65 SSE 5 7 29.71 1006 10 16.0934 0 0
10:35 pm 22:35 Clear 55 13 44 6.9 67 67 SE 3 6 29.71 1006 10 16.0934 0 0
10:55 pm 22:55 Clear 56 13.2 45 7.2 67 67 S 3 6 29.7 1006 10 16.0934 0 0
11:15 pm 23:15 Clear 53 11.4 43 5.9 69 69 S 3 6 29.72 1006 10 16.0934 0 0
11:35 pm 23:35 Clear 55 12.5 46 7.5 72 72 SSE 5 7 29.7 1006 10 16.0934 0 0
11:55 pm 23:55 Clear 54 12.2 44 6.7 69 69 SSE 9 15 29.72 1007 10 16.0934 0 0

Powered by AerisWeather